Regional Weather Roundup
Issued by NWS

Home | Current Version | Previous Version | Graphics & Text | Print | Product List | Glossary On
Versions: 1 2 3 4 5 6 7 8 9 10 11 12 13 14 15 16 17 18 19 20 21 22 23 24 25 26 27 28 29 30 31 32 33 34 35 36 37 38 39 40 41 42 43 44 45 46 47 48 49 50
000
ASUS45 KCYS 040310
RWRWY

WYOMING REGIONAL WEATHER ROUNDUP
NATIONAL WEATHER SERVICE CHEYENNE WY
800 PM MST SAT DEC 03 2016

NOTE:  "FAIR" INDICATES FEW OR NO CLOUDS BELOW 12,000 FEET
WITH NO SIGNIFICANT WEATHER AND/OR OBSTRUCTIONS TO VISIBILITY.

WYZ001-040400-
YELLOWSTONE NATIONAL PARK

CITY           SKY/WX    TMP DP  RH WIND       PRES   REMARKS
LK YELLOWSTONE   N/A     16  14  92 W6        30.04F WCI   7
W YELLOWSTONE  NOT AVBL

$$
WYZ002>013-054>058-071-098>099-040400-
NORTHERN WYOMING

CITY           SKY/WX    TMP DP  RH WIND       PRES   REMARKS
JACKSON        CLOUDY    25  21  86 SW5       30.10F WCI  19
CODY           FAIR      32  12  43 W13G23    29.99R WCI  22
GREYBULL       CLOUDY    29  16  58 SE3       29.99R
WORLAND        FAIR      25  16  68 SW3       29.99S
SHERIDAN       FAIR      34  16  47 W15       29.93S WCI  24
BUFFALO        FAIR      35   9  33 NW10      29.93F WCI  27
GILLETTE       CLOUDY    34  19  54 W16       29.93F WCI  24
HULETT         CLOUDY    34  25  69 W8G16     29.92S WCI  27
NEWCASTLE      FLURRIES  28  23  80 NW8       29.97S WCI  20

$$
WYZ014>020-022>026-101>103-040400-
CENTRAL WYOMING

CITY           SKY/WX    TMP DP  RH WIND       PRES   REMARKS
BIG PINEY      FAIR      14  10  84 NW6       30.11S WCI   5
PINEDALE       FAIR      12   9  85 W6        30.11S WCI   3
DUBOIS         CLOUDY    21  10  63 N14G20    30.01R WCI   8
LANDER         FAIR      24  10  55 CALM      30.01R
RIVERTON       FAIR      30   9  41 NW22G31   30.00S WCI  17
CASPER         FAIR      22  13  68 SW6       29.99S WCI  14
DOUGLAS        MOCLDY    28  14  55 W6        29.99R WCI  22

$$
WYZ021-027>030-104>119-040400-
SOUTHERN WYOMING

CITY           SKY/WX    TMP DP  RH WIND       PRES   REMARKS
EVANSTON       CLOUDY    23  13  65 SW9       30.19R WCI  13
FORT BRIDGER   FAIR      25  18  74 W25G31    30.17S WCI   9
ROCK SPRINGS   FAIR      20  16  84 W18       30.13R WCI   5
DIXON          CLOUDY    26  17  68 SW5       30.17F WCI  21
RAWLINS        FAIR      21  14  74 W18       30.06F WCI   6
SARATOGA       FAIR      21  16  79 W16G24    30.07F WCI   7
LARAMIE        MOCLDY    18   7  62 SW12      30.02R WCI   5
CHEYENNE       MOCLDY    25   9  50 W9        30.01R WCI  15
TORRINGTON     CLOUDY    32  14  47 W10       30.00R WCI  24
PINE BLUFFS    FAIR      30  12  47 NW18G24   30.02R WCI  18

$$



USA.gov is the U.S. government's official web portal to all federal, state and local government web resources and services.